Simultaneous Nadir Overpasses (SNOs) Predictions

Prediction of SNOs between AURA and NPP Satellite Orbit:

Table of predicted SNOs for the next 14.0 days since TLE Epoch: 5/25/2019
Index Date (AURA) Time (AURA) Lat,Lon (AURA) SZA (AURA ) Date (NPP) Time (NPP) Lat,Lon (NPP) SZA (NPP ) Distance(km) Time Diff (sec)
1 05/25/2019 11:25:05 79.38, -95.33 71.86 05/25/2019 11:24:40 79.38, -95.37 71.88 0.99 25
2 05/25/2019 12:14:25 -79.65, 74.18 108.55 05/25/2019 12:15:17 -79.66, 74.27 108.61 2.04 52
3 05/28/2019 02:52:22 -78.78,-150.74 107.74 05/28/2019 02:51:08 -78.82,-150.91 107.66 5.75 74
4 05/28/2019 03:41:29 79.52, 21.54 71.21 05/28/2019 03:41:32 79.53, 21.61 71.19 1.48 3
5 05/30/2019 19:08:36 -79.33, -31.54 108.90 05/30/2019 19:07:50 -79.33, -31.51 108.87 0.76 46
6 05/30/2019 19:57:56 79.55, 137.59 70.78 05/30/2019 19:58:28 79.54, 137.50 70.77 2.01 32
7 06/02/2019 11:25:02 -79.35, 84.50 109.28 06/02/2019 11:24:45 -79.35, 84.37 109.24 2.57 17
8 06/02/2019 12:14:19 79.68,-105.58 70.24 06/02/2019 12:15:19 79.68,-105.51 70.18 1.47 60
9 06/05/2019 02:52:05 79.24, 32.00 70.60 06/05/2019 02:50:59 79.23, 31.97 70.65 0.67 66
10 06/05/2019 03:41:25 -79.52,-158.46 109.83 06/05/2019 03:41:36 -79.53,-158.41 109.84 1.02 11
11 06/07/2019 19:08:31 79.29, 148.22 70.28 06/07/2019 19:07:54 79.28, 148.09 70.33 2.71 37




NCC Satellite Simultaneous Nadir Overpasses (SNOs) Prediction Service
